Regional Weather Roundup
Issued by NWS

Home | Current Version | Previous Version | Text Only | Print | Product List | Glossary On
Versions: 1 2 3 4 5 6 7 8 9 10 11 12 13 14 15 16 17 18 19 20 21 22 23 24 25 26 27 28 29 30 31 32 33 34 35 36 37 38 39 40 41 42 43 44 45 46 47 48 49 50
000
ASUS43 KLOT 311803
RWRIL

ILLINOIS REGIONAL WEATHER ROUNDUP
NATIONAL WEATHER SERVICE CHICAGO/ROMEOVILLE IL
100 PM CDT TUE MAY 31 2016

NOTE: "FAIR" INDICATES FEW OR NO CLOUDS BELOW 12,000 FEET WITH NO
SIGNIFICANT WEATHER AND/OR OBSTRUCTIONS TO VISIBILITY.

* THESE STATIONS ARE NOT UNDER NWS QUALITY CONTROL. THEY ALSO MAY NOT
  REPORT WEATHER SUCH AS PRECIPITATION OR FOG.

ILZ001-002-007-009-015-016-024-311900-
NORTHWEST ILLINOIS

CITY           SKY/WX    TMP DP  RH WIND       PRES   REMARKS
MOLINE         CLOUDY    80  59  48 S7        29.95S HX  81
6HR MIN TEMP:  70; 6HR MAX TEMP:  81; 6HR PCP:  0.01;

STERLING*      LGT RAIN  64  62  93 NE3       30.01F
$$

ILZ003-004-008-010-011-017-018-311900-
NORTH CENTRAL ILLINOIS

CITY           SKY/WX    TMP DP  RH WIND       PRES   REMARKS
ROCKFORD       TSTM      66  63  90 N8        30.03F
6HR MIN TEMP:  65; 6HR MAX TEMP:  81; 6HR PCP:  0.22;

FREEPORT*      LGT RAIN  63  61  94 CALM      30.03F
ROCHELLE*      CLOUDY    66  62  86 NW9       29.99F
$$

ILZ005-006-012>014-019>023-311900-
NORTHEAST ILLINOIS

CITY           SKY/WX    TMP DP  RH WIND       PRES   REMARKS
CHICAGO-OHARE  PTSUNNY   82  59  45 E12       29.96F HX  82
6HR MIN TEMP:  69; 6HR MAX TEMP:  82;

CHICAGO-MIDWAY CLOUDY    82  59  45 E13       29.97F HX  82
6HR MIN TEMP:  72; 6HR MAX TEMP:  82;

AURORA         CLOUDY    75  62  64 NW15      29.98S
6HR MIN TEMP:  70; 6HR MAX TEMP:  84;

LANSING*       PTSUNNY   82  58  43 SE9       29.98F HX  82
WAUKEGAN       SUNNY     71  57  61 E9        29.99F
6HR MIN TEMP:  65; 6HR MAX TEMP:  71;

DUPAGE AIRPORT PTSUNNY   78  58  49 W14G24    29.98R
6HR MIN TEMP:  68; 6HR MAX TEMP:  83;

WHEELING       SUNNY     79  57  46 E10       29.99S HX  80
6HR MIN TEMP:  67; 6HR MAX TEMP:  81;

NORTHERLY ISL    N/A     70  59  68 N5          N/A
$$

LMZ740>746-311900-
SOUTHERN LAKE MICHIGAN

STATION/POSITION SKY/WX   TEMP    WIND        PRES    VSBY  WAVE
                          AIR SEA DIR/SP/G                  HT/PER
                          (F)     (DEG/KT/KT) (MB)    (MI)  (FT/S)
SOUTHERN BUOY              57 54   70/  8/  8 1015.9          0
WILMETTE HARBOR            63 61   80/  4/  6   N/A           1
HARRISON CRIB              67      80/  6/  7   N/A
BURNHAM HARBOR             69     360/  4/  6   N/A
CALUMET HARBOR             66      50/  7/ 10 1015.2S
BURNS HARBOR               68      60/  8/ 10 1016.3S
MICHIGAN CITY              79      80/  5/  7   N/A
MICHIGAN CITY 6N           67 63   50/  4/  6   N/A           0
ST. JOSEPH                 74 66   80/  8/ 10   N/A           1
$$

ILZ025>027-034>036-040-047-049-050-058-095>099-311900-
WEST-CENTRAL ILLINOIS

CITY           SKY/WX    TMP DP  RH WIND       PRES   REMARKS
QUINCY         SUNNY     80  59  48 SE8       29.95F HX  81
MACOMB*        MOSUNNY   81  60  48 S13       29.99R HX  81
PITTSFIELD*    MOSUNNY   79  64  59 SE8       29.97F HX  81
$$

ILZ028>032-037-038-041>044-048-051>054-059>061-311900-
CENTRAL ILLINOIS

CITY           SKY/WX    TMP DP  RH WIND       PRES   REMARKS
BLOOMINGTON    CLOUDY    75  61  62 SW20G25   30.00R
DECATUR        LGT RAIN  74  64  71 W10       29.98F
PEORIA         CLOUDY    71  60  68 SW12      30.00R
6HR MIN TEMP:  68; 6HR MAX TEMP:  80; 6HR PCP: TRACE;

SPRINGFIELD    CLOUDY    74  65  73 CALM      29.97F
6HR MIN TEMP:  65; 6HR MAX TEMP:  77; 6HR PCP:  0.50;

TAYLORVILLE    NOT AVBL
$$

ILZ033-039-045-046-055>057-062-063-311900-
EAST-CENTRAL ILLINOIS

CITY           SKY/WX    TMP DP  RH WIND       PRES   REMARKS
CHAMPAIGN      CLOUDY    87  57  35 S14G21    29.97F HX  86
MATTOON        CLOUDY    83  56  39 S8        29.96F HX  82
$$

ILZ079-100>102-311900-
SOUTHWEST ILLINOIS

CITY           SKY/WX    TMP DP  RH WIND       PRES   REMARKS
ALTON          CLOUDY    73  64  73 SE9       29.98F
BELLEVILLE     PTSUNNY   75  66  73 W3        29.96F
CAHOKIA*       PTSUNNY   76  68  76 E7        29.97F
SPARTA*        CLOUDY    77  66  69 SW5       29.98F
$$

ILZ064>066-069>071-074>076-080>082-084>086-088>090-092>094-311900-
SOUTH-CENTRAL ILLINOIS

CITY           SKY/WX    TMP DP  RH WIND       PRES   REMARKS
CARBONDALE     CLOUDY    82  68  62 SW5       29.96F HX  85
6HR MIN TEMP:  69; 6HR MAX TEMP:  82;

MARION         CLOUDY    82  66  57 SE9       29.99  HX  85
MT. VERNON     MOSUNNY   84  63  48 SE8       29.96F HX  85
SALEM*         PTSUNNY   85  57  38 SE9       29.95F HX  84
$$

ILZ067-068-072-073-078-083-087-091-311900-
SOUTHEAST ILLINOIS

CITY           SKY/WX    TMP DP  RH WIND       PRES   REMARKS
LAWRENCEVILLE  MOSUNNY   89  55  31 S6        29.97F HX  87
FLORA*         MOSUNNY   86  61  42 S12       29.96F HX  86
HARRISBURG*    CLOUDY    84  65  53 S9        29.96F HX  86
ROBINSON*      MOSUNNY   85  60  42 SE9       29.98F HX  85
$$

ABBREVIATIONS USED IN REMARKS
   TC - TEMPERATURE IN CELSIUS
  WCI - WIND CHILL INDEX
   HX - HEAT INDEX
  VSB - VISIBILITY
$$





USA.gov is the U.S. government's official web portal to all federal, state and local government web resources and services.